{"data":{"norad_id":45390,"intl_designator":"2020-019AG","name":"STARLINK-1284","alt_names":[],"object_type":"PAYLOAD","status":"ACTIVE","operator":null,"country":"US","launch_date":"2020-03-18","launch_site_code":"AFETR","launch_vehicle":null,"mission":null,"orbit_class":"UNKNOWN","rcs_meters":null,"size_class":null,"mass_kg":null,"dimensions":null,"purposes":["comms"],"wikipedia_slug":null,"has_3d_model":false,"image_url":null,"decayed_at":null,"tle_current":{"epoch":"2026-05-25T02:46:34.428864Z","epoch_age_seconds":65062,"freshness":"FRESH","line1":"1 45390U 20019AG  26145.11567626  .00048907  00000+0  43358-3 0  9998","line2":"2 45390  53.0402 118.7505 0005192   6.6310 353.4773 15.68101068342150","mean_motion":15.68101068,"eccentricity":0.0005192,"inclination_deg":53.0402,"raan_deg":118.7505,"arg_perigee_deg":6.631,"mean_anomaly_deg":353.4773,"bstar":0.00043358,"rev_number":34215,"period_min":91.830815588731,"perigee_km":360.83414280607,"apogee_km":367.83552555868,"semimajor_km":6742.4718341824,"source":"CELESTRAK","updated_at":"2026-05-25T13:38:16.417329Z"}}}